Regional Weather Roundup
Issued by NWS Grand Forks, ND

Home | Current Version | Previous Version | Text Only | Print | Product List | Glossary Off
Versions: 1 2 3 4 5 6 7 8 9 10 11 12 13 14 15 16 17 18 19 20 21 22 23 24 25 26 27 28 29 30 31 32 33 34 35 36 37 38 39 40 41 42 43 44 45 46 47 48 49 50

000
ASUS43 KFGF 022231
RWRFGF
PRAIRIE TO PINES  WEATHER ROUNDUP
NATIONAL WEATHER SERVICE EASTERN NORTH DAKOTA/GRAND FORKS ND
500 PM CDT MON MAY 02 2016

 **SATELLITE DATA USED TO AUGMENT SKY COVER AT AUTOMATED STATIONS**
 *****  WEATHER ACROSS EASTERN NORTH DAKOTA  *****

CITY           SKY/WX    TMP DP  RH WIND       PRES   REMARKS
GRAND FORKS    PTSUNNY   71  26  18 VRB5      29.94F
GRAND FRKS AFB SUNNY     70  25  18 E5        29.95F
DEVILS LAKE    SUNNY     65  33  30 S3        29.99F
FARGO          SUNNY     69  27  20 CALM      29.95F
WAHPETON ARPT  CLEAR     68  25  19 S3        29.96S
$$

 ***** WEATHER ACROSS CENTRAL AND WESTERN NORTH DAKOTA  *****

CITY           SKY/WX    TMP DP  RH WIND       PRES   REMARKS
BISMARCK       PTSUNNY   63  43  48 E10       29.97F
MINOT          SUNNY     73  34  23 NE14      29.98S
JAMESTOWN      SUNNY     60  40  47 S14       29.99F
MINOT AFB      SUNNY     68  37  32 E6        29.97S HAZE
GARRISON         N/A     68  37  32 NE10G16   29.98S
WILLISTON      MOSUNNY   74  27  17 N14G21    29.99F
DICKINSON      SUNNY     67  31  26 N17G25    29.97S
HETTINGER      MOSUNNY   68  29  23 N23G37    29.96S
$$

 *****  OTHER AIRPORT OBSERVATIONS IN OUR AREA  *****

CITY           SKY/WX    TMP DP  RH WIND       PRES   REMARKS
WALHALLA       NOT AVBL
GRAFTON AIRPOR FAIR      70  30  23 E7G13     29.97F
VALLEY CITY AR FAIR      63  37  39 W13G21    30.00F
CANDO          NOT AVBL
CAVALIER APRT  FAIR      72  32  23 S3        29.96F
GWINNER        MOCLDY    64  37  36 SW8       29.98F
SHEYENNE NWR     N/A     68  31  25 SW3       29.95S
ROLLA          NOT AVBL
 ***** THE ABOVE OBSERVATIONS ARE NON NWS ARE NOT QUALITY
       CONTROLLED AND MAY MIS-REPORT RAIN FOR SNOW...
$$

  *****  WEATHER ACROSS NORTHERN MINNESOTA  *****

CITY           SKY/WX    TMP DP  RH WIND       PRES   REMARKS
FLAG ISLAND    SUNNY     61  32  33 SE7       29.96F
WARROAD        SUNNY     61  34  36 NE9       29.98S
ROSEAU         SUNNY     70  21  16 W3        29.97S
HALLOCK        PTSUNNY   72  21  15 W7        29.95S
THF RVR FALLS  SUNNY     68  25  19 CALM      29.97S
BAUDETTE       SUNNY     68  26  20 E6        29.96F
WASKISH        SUNNY     64  30  27 SW6       29.97F
CROOKSTON      SUNNY     70  27  19 NE3       29.95F
STEPHEN NDAWN    N/A     70  27  19 SW3         N/A
GREENBUSH NDAW   N/A     70  28  21 SW1         N/A
$$
  *****  WEATHER ACROSS CENTRAL AND WEST MINNESOTA  *****

CITY           SKY/WX    TMP DP  RH WIND       PRES   REMARKS
FOSSTON        SUNNY     72  21  15 SW5       29.96F
BEMIDJI        SUNNY     67  27  22 E7        29.96F
PARK RAPIDS    MOSUNNY   66  24  20 N8        29.97F
ELBOW LAKE     MOCLDY    67  31  26 SW6       29.98F
WADENA         PTSUNNY   64  30  27 CALM      29.98S
DETROIT LAKES  SUNNY     66  28  24 W7        29.99S
MOORHEAD       SUNNY     70  27  19 CALM      29.96S
FERGUS FALLS   SUNNY     68  34  28 SW6       29.94S
MORRIS MN      SUNNY     70  30  23 S8        29.97F
STAPLES        SUNNY     64  27  24 W7        29.98S
$$
  *****  WEATHER ELSEWHERE ACROSS MINNESOTA  *****

CITY           SKY/WX    TMP DP  RH WIND       PRES   REMARKS
DULUTH         MOSUNNY   63  32  31 SE9       29.99F
INTRNTL FALLS  SUNNY     67  25  20 VRB5      29.95F
ELY            MOSUNNY   64  25  22 SW3       29.95F
CLOQUET        CLOUDY    64  25  22 NE3       29.99S
WHEATON        SUNNY     66  34  30 CALM      29.98F
BRAINERD       MOSUNNY   64  30  27 SW8       29.99F
HIBBING        MOSUNNY   64  30  27 MISG      29.98F
ALEXANDRIA     MOSUNNY   66  28  24 S8        30.00F
SAINT CLOUD    MOSUNNY   65  29  25 VRB3      29.99F
MINNEAPOLIS    MOSUNNY   65  30  27 MISG      30.01F
$$

  *****  WEATHER ACROSS SOUTH DAKOTA  *****

CITY           SKY/WX    TMP DP  RH WIND       PRES   REMARKS
SIOUX FALLS    CLOUDY    62  38  40 VRB3      30.02F
BROOKINGS      CLOUDY    64  35  34 S9        30.00F
WATERTOWN      PTSUNNY   63  32  31 S5        29.99F
HURON          CLOUDY    61  38  42 W8        29.98F
SISSETON         N/A     66  26  22 CALM      29.96F
ABERDEEN       PTSUNNY   61  42  49 NW8       30.00F
MITCHELL       MOSUNNY   64  39  39 S8        30.01F
PIERRE         CLOUDY    60  40  47 W12       29.99F
MOBRIDGE       PTSUNNY   62  46  55 SW8       29.94F
RAPID CITY     MOSUNNY   64  33  31 NW20G31   30.00F
$$

  *****  SOME WEATHER IN NEARBY STATES *****

CITY           SKY/WX    TMP DP  RH WIND       PRES   REMARKS
GLASGOW MT     SUNNY     76  37  24 NW12      30.02F
GREAT FALLS MT SUNNY     71  29  21 N5        30.12
CHEYENNE WY    MOSUNNY   54   8  16 NW21G29   30.14F
SCOTTSBLUFF NE PTSUNNY   64  33  31 W16       30.04F
OMAHA NE       PTSUNNY   64  38  38 NW5       30.05F
DES MOINES IA  LGT RAIN  60  37  42 E9        30.05S
DAVENPORT IA   CLOUDY    59  40  49 NE8       30.03F
CHICAGO IL     PTSUNNY   57  33  40 N14       30.01F
EAU CLAIRE WI  MOSUNNY   63  31  30 SW6       30.00F
LA CROSSE WI   CLOUDY    64  34  32 NW6       30.01F
$$

  *****  SOME NATIONAL WEATHER *****

CITY           SKY/WX    TMP DP  RH WIND       PRES   REMARKS
LA GUARDIA NY  MOSUNNY   61  51  70 W8        29.90R
RALEIGH NC     CLOUDY    68  66  93 CALM      29.92F
ATLANTA GA     CLOUDY    80  61  52 W9        29.91F
NEW ORLEANS LA CLOUDY    78  72  81 CALM      29.94F
OKLAHOMA CITY  PTSUNNY   63  43  48 N15       30.10F
ALBUQUERQUE NM MOSUNNY   60  33  36 NW3       30.17F
SALT LAKE CITY MOSUNNY   67  30  25 N6        30.15F
LOS ANGELES CA MOSUNNY   65  53  65 W18       29.99F
BOISE ID       SUNNY     74  29  19 SE9G16    30.10F
SEATTLE WA     MOSUNNY   86  43  22 W7        29.93F
$$

*** WEATHER ACROSS MANITOBA...SASKATCHEWAN AND ONTARIO ***
                ***ONTARIO***

CITY           SKY/WX    TMP DP  RH WIND       PRES   REMARKS
GERALDTON      PTSUNNY   64  28  25 NW5       29.92F
THUNDER BAY    MOSUNNY   64  30  27 S14       29.96F
SIOUX LOOKOUT  CLOUDY    64  30  27 W7        29.93F
TORONTO        MOSUNNY   52  39  62 SE12      29.98S
BIG TROUT LK   MOSUNNY   61  34  36 W12G17    29.73F
PICKLE LAKE    PTSUNNY   63  28  27 W12       29.87F
DRYDEN         MOSUNNY   66  27  22 W13G21    29.94F
KENORA         PTSUNNY   63  27  25 W9G18     29.97F
$$
                *** MANITOBA***

CITY           SKY/WX    TMP DP  RH WIND       PRES   REMARKS
BRANDON        PTSUNNY   70  37  30 W7        29.97F
DAUPHIN        SUNNY     70  36  28 N6        29.94F
ISLAND LAKE    PTSUNNY   64  36  34 W16G24    29.77F
PILOT MOUND      N/A     66  30  26 W8          N/A
THE PAS        MOSUNNY   73  34  23 SW16G23   29.86F
THOMPSON       MOSUNNY   64  28  25 NW18G31   29.79S
WINNIPEG       PTSUNNY   70  28  21 SW7       29.95F
LYNN LAKE      SUNNY     59  28  31 NW17G26   29.93R
CHURCHILL      CLOUDY    36  32  87 NW23      29.74R
GILLAM         MOSUNNY   55  30  38 NW26G32   29.69R
$$
                ***SASKATCHEWAN***

CITY           SKY/WX    TMP DP  RH WIND       PRES   REMARKS
ESTEVAN        MOSUNNY   75  34  22 CALM      29.98F
KINDERSLEY     MOSUNNY   79  37  22 N9        30.02F
LLOYDMINSTER   MOSUNNY   79  36  21 VRB2      30.01F
PRINCE ALBERT  PTSUNNY   79  36  21 VRB3      29.94F
REGINA         PTSUNNY   73  30  20 N14G20    29.99F
YORKTON        SUNNY     70  32  24 N5        29.98F
N. BATTLEFORD  SUNNY     81  36  19 NW9       30.01F
LA RONGE       MOSUNNY   77  36  22 N16       29.95
SASKATOON      MOSUNNY   79  36  21 N13G18    30.00F
SWIFT CURRENT  SUNNY     73  34  23 NE7G21    30.03F
$$
NOTE: THESE ARE AUTOMATED STATIONS WITH LIMITED QUALITY CONTROL
      "FAIR" INDICATES FEW OR NO CLOUDS BELOW 12,000 FEET WITH NO
      SIGNIFICANT WEATHER AND/OR OBSTRUCTIONS TO VISIBILITY.
      SKY/WX - SKY CONDITION AND SIGNIFICANT WEATHER.
      TMP - AIR TEMPERATURE.    DP   - DEWPOINT TEMPERATURE.
      RH  - RELATIVE HUMIDITY.  PRES - PRESSURE.
      HX  - HEAT INDEX.         WCI  - WIND CHILL INDEX.
$



USA.gov is the U.S. government's official web portal to all federal, state and local government web resources and services.